Home > Weather > Anchorage > Past weeks

Flag for U.S.A. Weather for the Past 2 Weeks in Anchorage, Alaska, U.S.A.

Now
29 °F

Passing clouds.


Feels Like: 25 °F
Forecast: 26 / 36 °F
Wind: 3 mph from Northeast

Location: Lake Hood Seaplane

Current Time: Feb 11, 2016 at 7:00:51 AM

Latest Report: Feb 11, 2016 at 5:53 AM


Visibility: 10 mi

Pressure: 29.52 "Hg

Humidity: 72%

Dew point: 21 °F

Location of AnchorageLocation

Historic Weather in Anchorage — Graph

°F

Anchorage Temperature Yesterday

Maximum temperature yesterday: 35 °F (at 2:53 PM)
Minimum temperature yesterday: 19 °F (at 5:53 AM)
Average temperature yesterday: 27 °F

High & Low Weather Summary for the Past Weeks

 TemperatureHumidityPressure
High45 °F (Feb 4, 10:53 PM)96% (Jan 30, 9:53 AM)30.09 "Hg (Jan 30, 9:53 AM)
Low14 °F (Feb 2, 3:53 AM)44% (Feb 4, 10:53 PM)28.59 "Hg (Jan 27, 1:53 PM)
Average28 °F74%29.55 "Hg
* Reported Jan 27 5:53 AM — Feb 11 5:53 AM, Anchorage, Weather by CustomWeather, © 2016

Note: Actual official high and low records may vary slightly from our data, if they occured in-between our weather recording intervals... More about our weather records

Advertising

Anchorage Weather History for the Previous 24 Hours

 ConditionsComfort  
Time TempWeatherWind HumidityBarometerVisibility
5:53 AM
Thu, Feb 11
29 °FPassing clouds.3 mph72%29.52 "Hg10 mi
4:53 AM30 °FPassing clouds.6 mph64%29.52 "Hg10 mi
3:53 AM29 °FClear.6 mph69%29.51 "Hg10 mi
2:53 AM30 °FMostly cloudy.5 mph66%29.52 "Hg10 mi
1:53 AM30 °FOvercast.7 mph64%29.51 "Hg10 mi
12:53 AM30 °FPassing clouds.6 mph66%29.50 "Hg10 mi
11:53 PM
Wed, Feb 10
29 °FOvercast.8 mph64%29.51 "Hg10 mi
10:53 PM30 °FOvercast.8 mph59%29.52 "Hg10 mi
9:53 PM28 °FClear.10 mph61%29.52 "Hg10 mi
8:53 PM28 °FPassing clouds.7 mph61%29.53 "Hg10 mi
7:53 PM29 °FPassing clouds.5 mph64%29.53 "Hg10 mi
6:53 PM30 °FPassing clouds.7 mph61%29.54 "Hg10 mi
5:53 PM30 °FPassing clouds.5 mph59%29.54 "Hg10 mi
4:53 PM30 °FSunny.3 mph59%29.54 "Hg10 mi
3:53 PM33 °FSunny.7 mph52%29.54 "Hg10 mi
2:53 PM35 °FSunny.6 mph48%29.54 "Hg10 mi
1:53 PM34 °FPartly sunny.7 mph48%29.54 "Hg10 mi
12:53 PM32 °FMostly cloudy.No wind54%29.55 "Hg10 mi
11:53 AM30 °FMostly cloudy.5 mph61%29.56 "Hg10 mi
10:53 AM29 °FMostly cloudy.No wind61%29.57 "Hg10 mi
9:53 AM28 °FOvercast.5 mph61%29.57 "Hg10 mi
8:53 AM26 °FOvercast.5 mph69%29.57 "Hg10 mi
7:53 AM22 °FOvercast.No wind78%29.57 "Hg10 mi
Weather by CustomWeather, © 2016

See weather overviewHow to use our weather pages